Orbital Elements at Epoch 2459200.5 (2020-Dec-17.0) TDB
Reference: JPL 24 (heliocentric ecliptic J2000)
Element | Value | Uncertainty (1-sigma) | Units |
e | .2299862412075129 | 4.9688e-08 | |
a | 2.767429818493175 | 2.1308e-08 | au |
q | 2.13095903673234 | 1.4411e-07 | au |
i | 7.618358533469769 | 5.7811e-06 | deg |
node | 273.1201226171246 | 4.2067e-05 | deg |
peri | 91.48020052534022 | 4.4467e-05 | deg |
M | 230.0463746185933 | 1.5059e-05 | deg |
tp | 2459807.514757970264 (2022-Aug-16.01475797) | 7.4634e-05 | TDB |
period | 1681.56380576483 4.60 | 1.9421e-05 5.317e-08 | d yr |
n | .2140864347613978 | 2.4725e-09 | deg/d |
Q | 3.40390060025401 | 2.6208e-08 | au |
|
| | Orbit Determination Parameters
Additional Information
|